Kemmerer, WY

6:51 AM MDT on May 30, 2017 (GMT -0600)
Kemmerer Municipal

Weather History for KEMM - September, 2013

Change the Weather History Date:

Wednesday, September 25, 2013

  Actual Average Record
Temperature  
Mean Temperature 42 °F -  
Max Temperature 53 °F 64 °F 83 °F (1952)
Min Temperature 32 °F 33 °F 13 °F (1958)
Degree Days  
Heating Degree Days 22    
Moisture  
Dew Point 32 °F    
Average Humidity 66    
Maximum Humidity 100    
Minimum Humidity 33    
Precipitation  
Precipitation 0.04 in - - ()
Sea Level Pressure  
Sea Level Pressure 29.77 in    
Wind  
Wind Speed 8 mph (WSW)    
Max Wind Speed 30 mph    
Max Gust Speed 39 mph    
Visibility 10 miles    
Events Rain , Snow    
Averages and records for this station are not official NWS values.
T = Trace of Precipitation, MM = Missing Value Source: NWS Daily Summary

Daily Weather History Graph

Daily Weather History Graph

Search for Another Location

Airport or City:

Trip Planner

Search our weather history database for the weather conditions in past years. The results will help you decide how hot, cold, wet, or windy it might be!

Date:

Astronomy

Sep. 25, 2013 Rise Set
Actual Time 7:13 AM MDT 7:13 PM MDT
Civil Twilight 6:45 AM MDT 7:41 PM MDT
Nautical Twilight 6:12 AM MDT 8:13 PM MDT
Astronomical Twilight 5:39 AM MDT 8:46 PM MDT
Moon 11:18 PM MDT (9/25) 1:26 PM MDT (9/25)
Length of Visible Light 12h 56m
Length of Day
12h 00m
Waning Gibbous, 63% of the Moon is Illuminated
Sep 25
Waning Gibbous
Sep 26
Last Quarter
Oct 4
New
Oct 11
First Quarter
Oct 18
Full

Hourly Weather History & Observations

Time (MDT) Temp. Windchill Dew Point Humidity Pressure Visibility Wind Dir Wind Speed Gust Speed Precip Events Conditions
12:15 AM 53.6 °F - 24.8 °F 33% 29.85 in 10.0 mi South 10.4 mph - N/A   Clear
12:35 AM 51.8 °F - 26.6 °F 38% 29.84 in 10.0 mi SSW 10.4 mph - N/A   Clear
12:55 AM 51.8 °F - 26.6 °F 38% 29.84 in 10.0 mi South 8.1 mph - N/A   Clear
1:15 AM 51.8 °F - 26.6 °F 38% 29.84 in 10.0 mi South 10.4 mph 17.3 mph N/A   Clear
1:35 AM 50.0 °F - 28.4 °F 43% 29.84 in 10.0 mi WSW 8.1 mph - N/A   Clear
1:55 AM 50.0 °F - 26.6 °F 40% 29.84 in 10.0 mi WSW 4.6 mph - N/A   Clear
2:15 AM 48.2 °F - 28.4 °F 46% 29.84 in 10.0 mi West 3.5 mph - N/A   Clear
2:35 AM 48.2 °F - 28.4 °F 46% 29.83 in 10.0 mi Calm Calm - N/A   Clear
2:55 AM 46.4 °F 43.5 °F 30.2 °F 53% 29.82 in 10.0 mi NNW 5.8 mph - N/A   Clear
3:15 AM 46.4 °F 44.3 °F 30.2 °F 53% 29.81 in 10.0 mi North 4.6 mph - N/A   Clear
3:35 AM 44.6 °F 43.1 °F 32.0 °F 61% 29.81 in 10.0 mi North 3.5 mph - N/A   Clear
3:55 AM 44.6 °F 41.4 °F 32.0 °F 61% 29.79 in 10.0 mi North 5.8 mph - N/A   Clear
4:15 AM 44.6 °F - 32.0 °F 61% 29.79 in 10.0 mi Calm Calm - N/A   Clear
4:35 AM 44.6 °F - 32.0 °F 61% 29.77 in 10.0 mi Calm Calm - N/A   Clear
4:55 AM 42.8 °F 41.1 °F 32.0 °F 66% 29.77 in 10.0 mi NNW 3.5 mph - N/A   Clear
5:15 AM 42.8 °F 36.2 °F 32.0 °F 66% 29.78 in 10.0 mi NNW 12.7 mph 20.7 mph N/A   Clear
5:35 AM 42.8 °F 36.6 °F 32.0 °F 66% 29.77 in 10.0 mi North 11.5 mph - N/A   Mostly Cloudy
5:55 AM 42.8 °F 39.3 °F 33.8 °F 70% 29.76 in 10.0 mi North 5.8 mph - N/A   Overcast
6:15 AM 44.6 °F 43.1 °F 32.0 °F 61% 29.75 in 10.0 mi North 3.5 mph - N/A   Overcast
6:35 AM 48.2 °F - 32.0 °F 54% 29.74 in 10.0 mi Calm Calm - N/A   Scattered Clouds
6:55 AM 46.4 °F 43.5 °F 32.0 °F 57% 29.73 in 10.0 mi SE 5.8 mph - N/A   Clear
7:15 AM 48.2 °F - 30.2 °F 50% 29.73 in 10.0 mi South 4.6 mph - N/A   Scattered Clouds
7:35 AM 48.2 °F - 32.0 °F 54% 29.74 in 10.0 mi WNW 4.6 mph - N/A   Mostly Cloudy
7:55 AM 50.0 °F - 30.2 °F 47% 29.73 in 10.0 mi Calm Calm - N/A   Overcast
8:15 AM 50.0 °F - 32.0 °F 50% 29.72 in 10.0 mi Calm Calm - N/A   Overcast
8:35 AM 51.8 °F - 32.0 °F 47% 29.72 in 10.0 mi Calm Calm - N/A   Overcast
8:55 AM 53.6 °F - 30.2 °F 41% 29.71 in 10.0 mi Calm Calm - N/A   Overcast
9:15 AM 51.8 °F - 30.2 °F 44% 29.71 in 10.0 mi West 6.9 mph - N/A   Overcast
9:35 AM 50.0 °F - 32.0 °F 50% 29.72 in 10.0 mi WSW 21.9 mph 36.8 mph N/A Rain Light Rain
9:55 AM 50.0 °F - 32.0 °F 50% 29.71 in 10.0 mi SSW 18.4 mph - N/A   Overcast
10:15 AM 46.4 °F 39.5 °F 33.8 °F 62% 29.72 in 10.0 mi WSW 17.3 mph 27.6 mph N/A   Overcast
10:35 AM 46.4 °F 37.4 °F 35.6 °F 66% 29.70 in 10.0 mi WSW 28.8 mph 35.7 mph N/A   Drizzle
10:55 AM 46.4 °F 38.5 °F 35.6 °F 66% 29.71 in 10.0 mi SW 21.9 mph 35.7 mph N/A Rain Light Rain
11:15 AM 46.4 °F 38.3 °F 35.6 °F 66% 29.71 in 10.0 mi SSW 23.0 mph 27.6 mph N/A Rain Light Rain
11:35 AM 48.2 °F - 35.6 °F 62% 29.71 in 10.0 mi SSW 17.3 mph - N/A   Scattered Clouds
11:55 AM 50.0 °F - 35.6 °F 58% 29.69 in 10.0 mi SSW 18.4 mph 25.3 mph N/A   Scattered Clouds
12:15 PM 50.0 °F - 32.0 °F 50% 29.69 in 10.0 mi SSW 27.6 mph 38.0 mph N/A   Mostly Cloudy
12:35 PM 46.4 °F 38.3 °F 37.4 °F 71% 29.69 in 10.0 mi WSW 23.0 mph 39.1 mph N/A Rain Light Rain
12:55 PM 39.2 °F 27.4 °F 37.4 °F 93% 29.73 in 3.0 mi West 29.9 mph 36.8 mph 0.01 in Rain Heavy Rain
1:15 PM 33.8 °F 21.6 °F 32.0 °F 93% 29.75 in 1.2 mi WNW 23.0 mph 32.2 mph 0.02 in Rain Light Rain
1:35 PM 32.0 °F 22.1 °F 32.0 °F 100% 29.76 in 0.8 mi WNW 13.8 mph - 0.03 in Snow Light Snow
4:55 PM 35.6 °F 29.2 °F 32.0 °F 87% 29.78 in 10.0 mi WSW 8.1 mph - N/A   Overcast
5:15 PM 35.6 °F 29.2 °F 32.0 °F 87% 29.79 in 10.0 mi South 8.1 mph 16.1 mph N/A   Overcast
5:35 PM 37.4 °F 33.8 °F 32.0 °F 81% 29.77 in 10.0 mi South 4.6 mph - N/A   Overcast
5:55 PM 37.4 °F 28.5 °F 32.0 °F 81% 29.79 in 10.0 mi SW 15.0 mph 18.4 mph N/A   Overcast
6:55 PM 35.6 °F 27.5 °F 32.0 °F 87% 29.79 in 10.0 mi WSW 11.5 mph - N/A   Overcast
7:35 PM 35.6 °F 29.2 °F 32.0 °F 87% 29.79 in 10.0 mi SSW 8.1 mph - N/A   Overcast
7:55 PM 35.6 °F 29.2 °F 32.0 °F 87% 29.79 in 10.0 mi WSW 8.1 mph - N/A   Overcast
8:15 PM 35.6 °F 30.7 °F 32.0 °F 87% 29.80 in 10.0 mi SW 5.8 mph - N/A   Overcast
8:35 PM 35.6 °F - 32.0 °F 87% 29.80 in 10.0 mi Calm Calm - N/A   Overcast
8:55 PM 35.6 °F - 33.8 °F 93% 29.80 in 10.0 mi Calm Calm - N/A   Overcast
9:15 PM 35.6 °F 29.2 °F 32.0 °F 87% 29.81 in 10.0 mi WSW 8.1 mph - N/A   Overcast
9:35 PM 35.6 °F - 32.0 °F 87% 29.81 in 10.0 mi Calm Calm - N/A   Overcast
9:55 PM 35.6 °F - 32.0 °F 87% 29.81 in 10.0 mi Calm Calm - N/A   Overcast
10:15 PM 35.6 °F - 32.0 °F 87% 29.81 in 10.0 mi Calm Calm - N/A   Overcast
10:35 PM 35.6 °F - 32.0 °F 87% 29.81 in 10.0 mi Calm Calm - N/A   Overcast
11:15 PM 35.6 °F - 32.0 °F 87% 29.81 in 10.0 mi Calm Calm - N/A   Overcast
11:35 PM 35.6 °F 31.7 °F 32.0 °F 87% 29.82 in 10.0 mi SSW 4.6 mph - N/A   Overcast
11:55 PM 35.6 °F 29.9 °F 32.0 °F 87% 29.82 in 10.0 mi South 6.9 mph - N/A   Overcast